Flag for Canada Weather past 2 weeks in Kamloops, British Columbia, Canada

Now
63 °F

Clear.


Feels Like: 63 °F
Forecast: 49 / 82 °F
Wind: No wind

Location: Kamloops

Current Time: Sep 15, 2014 at 11:05:44 PM

Latest Report: Sep 15, 2014 at 10:00 PM


Visibility: 40 mi

Pressure: 29.87 "Hg

Humidity: 52%

Dew point: 45 °F

Location of KamloopsLocation

Historic Weather in Kamloops — Graph

°F

Kamloops temperature yesterday

Maximum temperature yesterday: 81 °F (at 5:00 PM)
Minimum temperature yesterday: 45 °F (at 7:00 AM)
Average temperature yesterday: 60 °F

Past Weeks' High & Low Weather Summary

 TemperatureHumidityPressure
High84 °F (Sep 6, 5:00 PM)88% (Sep 2, 3:00 PM)30.57 "Hg (Sep 2, 3:00 PM)
Low36 °F (Sep 11, 5:00 AM)17% (Sep 14, 4:00 PM)29.63 "Hg (Sep 7, 7:00 PM)
Average60 °F51%30.07 "Hg
* Reported Aug 31 10:00 PM — Sep 15 10:00 PM, Kamloops, Weather by CustomWeather, © 2014

Note: Actual official high and low records may vary slightly from our data, if they occured in-between our weather recording intervals... More about our weather records

Advertising

Kamloops weather history for previous 24 hours

 ConditionsComfort  
Time TempWeatherWind HumidityBarometerVisibility
10:00 PM
Sep 15
63 °FClear.No wind52%29.87 "Hg40 mi
9:00 PM70 °FClear.No wind38%29.85 "Hg40 mi
8:00 PM70 °FPassing clouds.6 mph38%29.84 "Hg40 mi
7:00 PM77 °FPassing clouds.8 mph32%29.83 "Hg40 mi
6:00 PM82 °FPassing clouds.9 mph26%29.83 "Hg40 mi
5:00 PM82 °FPassing clouds.6 mph26%29.84 "Hg40 mi
4:00 PM81 °FPassing clouds.9 mph28%29.87 "Hg40 mi
3:00 PM79 °FPassing clouds.8 mph30%29.90 "Hg40 mi
2:00 PM75 °FPassing clouds.10 mph34%29.93 "Hg40 mi
1:00 PM72 °FSunny.8 mph36%29.97 "Hg40 mi
12:00 PM68 °FPassing clouds.9 mph40%30.00 "Hg40 mi
11:00 AM63 °FSunny.9 mph49%30.03 "Hg40 mi
10:00 AM59 °FSunny.2 mph55%30.05 "Hg40 mi
9:00 AM55 °FSunny.2 mph59%30.06 "Hg40 mi
8:00 AM52 °FSunny.6 mph67%30.07 "Hg40 mi
7:00 AM48 °FClear.2 mph71%30.07 "Hg40 mi
6:00 AM45 °FClear.5 mph76%30.06 "Hg40 mi
5:00 AM50 °FClear.2 mph67%30.04 "Hg40 mi
4:00 AM48 °FClear.2 mph71%30.04 "Hg40 mi
3:00 AM52 °FClear.7 mph62%30.03 "Hg40 mi
2:00 AM55 °FClear.5 mph55%30.02 "Hg40 mi
1:00 AM55 °FClear.7 mph55%30.01 "Hg40 mi
12:00 AM55 °FClear.3 mph55%30.00 "Hg40 mi
11:00 PM
Sep 14
59 °FClear.No wind45%29.99 "Hg40 mi
Weather by CustomWeather, © 2014

See weather overviewHow to use our weather pages